This demonstration page uses our WeatherBlox Daily Observations layout. Learn more.

Left ArrowRight Arrow

40.92945, -100.16068

Hourly Observations for November 20, 2015

Temp ( °F °C ) Dew Point ( °F °C ) Humidity (%) Winds ( mph kmh ) Pressure ( in mb ) Visibility ( mi km ) Precip ( " mm )
12:15 am 00:15 Cloudy 37 2.7 28 -2.5 69 69 SSE 9 15 30.12 1020 10 16 N/A
12:35 am 00:35 Cloudy 37 2.8 27 -2.6 68 68 SE 9 15 30.12 1020 10 16 N/A
12:55 am 00:55 Cloudy 37 2.7 28 -2.3 70 70 SSE 9 15 30.12 1020 10 16 N/A
1:15 am 01:15 Cloudy 37 2.9 28 -2.3 69 69 S 9 15 30.12 1020 10 16 N/A
1:35 am 01:35 Cloudy 38 3.3 27 -2.8 65 65 SSE 13 20 30.09 1019 10 16 N/A
1:55 am 01:55 Cloudy 38 3.3 27 -2.7 65 65 SSE 10 17 30.09 1019 10 16 N/A
2:15 am 02:15 Cloudy 38 3.3 27 -2.7 65 65 S 12 19 30.09 1019 10 16 N/A
2:35 am 02:35 Cloudy 38 3.2 27 -2.7 66 66 SSE 12 19 30.06 1018 10 16 N/A
2:55 am 02:55 Cloudy 38 3.3 27 -3 64 64 S 16 26 30.06 1018 10 16 N/A
3:15 am 03:15 Mostly Cloudy 38 3.2 27 -3 64 64 S 15 24 30.06 1018 10 16 N/A
3:35 am 03:35 Mostly Cloudy 38 3.2 27 -2.9 65 65 S 16 26 30.03 1017 10 16 N/A
3:55 am 03:55 Mostly Cloudy 38 3.2 27 -3 64 64 S 17 28 30.03 1017 10 16 N/A
4:15 am 04:15 Mostly Cloudy 38 3.2 27 -3 64 64 S 16 26 29.97 1015 10 16 N/A
4:35 am 04:35 Mostly Cloudy 38 3.1 27 -3 65 65 SSE 12 19 29.97 1015 10 16 N/A
4:55 am 04:55 Partly Cloudy 37 3 27 -3 65 65 SSE 14 22 29.97 1015 10 16 N/A
5:15 am 05:15 Partly Cloudy 37 2.8 27 -2.8 67 67 SSE 13 20 29.97 1015 10 16 N/A
5:35 am 05:35 Cloudy 37 2.9 27 -3 66 66 SSW 6 9 30.03 1017 10 16 N/A
5:55 am 05:55 Cloudy 37 3 26 -3.1 65 65 N N/A 30.03 1017 10 16 N/A
6:15 am 06:15 Cloudy 37 2.7 27 -2.6 68 68 SSE 8 13 29.97 1015 10 16 N/A
6:35 am 06:35 Cloudy 37 2.5 27 -2.6 69 69 SSE 8 13 29.97 1015 10 16 N/A
6:55 am 06:55 Cloudy 37 2.5 28 -2.5 70 70 SE 5 7 29.97 1015 10 16 N/A
7:15 am 07:15 Mostly Cloudy 37 2.5 28 -2.5 70 70 ESE 7 11 29.97 1015 10 16 N/A
7:35 am 07:35 Partly Cloudy 37 2.5 28 -2.4 70 70 SSE 9 15 29.94 1014 10 16 N/A
7:55 am 07:55 Partly Cloudy 36 2.1 28 -2.3 73 73 SE 10 17 29.97 1015 10 16 N/A
8:15 am 08:15 Partly Cloudy 36 2 28 -2.5 72 72 SE 12 19 29.94 1014 10 16 N/A
8:35 am 08:35 Mostly Cloudy 36 2 28 -2.5 72 72 SE 8 13 29.94 1014 10 16 N/A
8:55 am 08:55 Cloudy 37 2.5 28 -2.2 71 71 SSE 12 19 29.91 1013 10 16 N/A
9:15 am 09:15 Mostly Cloudy 37 2.9 29 -1.8 72 72 SSE 14 22 29.88 1012 10 16 N/A
9:35 am 09:35 Partly Cloudy 38 3.6 29 -1.8 68 68 S 12 19 29.88 1012 10 16 N/A
9:55 am 09:55 Sunny 40 4.5 29 -1.7 64 64 S 12 19 29.88 1012 10 16 N/A
10:15 am 10:15 Sunny 41 5.1 29 -1.5 63 63 S 17 28 29.83 1010 10 16 N/A
10:35 am 10:35 Sunny 42 5.5 30 -1 63 63 S 14 22 29.83 1010 10 16 N/A
10:55 am 10:55 Sunny 43 6.1 31 -0.5 63 63 SW 8 13 29.85 1011 10 16 N/A
11:15 am 11:15 Sunny 44 6.6 31 -0.3 62 62 S 7 11 29.85 1011 10 16 N/A
11:35 am 11:35 Sunny 45 7 31 -0.4 60 60 W 9 15 29.85 1011 10 16 N/A
11:55 am 11:55 Partly Cloudy 46 7.5 32 -0.1 59 59 W 13 20 29.85 1011 10 16 N/A
12:15 pm 12:15 Partly Cloudy 45 7 32 undefined 61 61 WNW 14 22 29.88 1012 10 16 N/A
12:35 pm 12:35 Partly Cloudy 44 6.9 32 undefined 62 62 NW 17 28 29.88 1012 10 16 N/A
12:55 pm 12:55 Mostly Cloudy 44 6.5 32 undefined 64 64 NNW 15 24 29.88 1012 10 16 N/A
1:15 pm 13:15 Cloudy 44 6.7 32 0.2 64 64 N 17 28 29.88 1012 10 16 N/A
1:35 pm 13:35 Mostly Cloudy 44 6.5 32 -0.1 63 63 N 16 26 29.88 1012 10 16 N/A
1:55 pm 13:55 Partly Cloudy 44 6.5 32 undefined 64 64 N 18 30 29.91 1013 10 16 N/A
2:15 pm 14:15 Partly Cloudy 40 4.4 32 undefined 73 73 N 22 35 29.97 1015 10 16 N/A
2:35 pm 14:35 Mostly Cloudy 38 3.5 32 -0.1 78 78 NNW 22 35 30.00 1016 10 16 N/A
2:55 pm 14:55 Cloudy 38 3.2 31 -0.4 78 78 N 21 33 30.03 1017 10 16 N/A
3:15 pm 15:15 Cloudy 37 2.9 31 -0.6 78 78 N 20 31 30.06 1018 10 16 N/A
3:35 pm 15:35 Cloudy 36 2.4 31 -0.8 80 80 N 17 28 30.09 1019 10 16 N/A
3:55 pm 15:55 Cloudy 35 1.6 29 -1.6 80 80 N 21 33 30.09 1019 10 16 N/A
4:15 pm 16:15 Cloudy 34 1.1 28 -2 80 80 N 22 35 30.12 1020 10 16 N/A
4:35 pm 16:35 Cloudy 33 0.8 28 -2.4 79 79 N 24 39 30.12 1020 10 16 N/A
4:55 pm 16:55 Cloudy 32 0.2 28 -2.4 83 83 N 21 33 30.15 1021 10 16 N/A
5:15 pm 17:15 Cloudy 32 -0.1 27 -2.9 82 82 N 16 26 30.18 1022 10 16 N/A
5:35 pm 17:35 Cloudy 32 -0.2 27 -2.8 83 83 N 23 37 30.18 1022 10 16 N/A
5:55 pm 17:55 Cloudy 31 -0.4 26 -3.1 82 82 N 21 33 30.21 1023 10 16 N/A
6:15 pm 18:15 Cloudy 31 -0.7 26 -3.4 82 82 N 18 30 30.24 1024 10 16 N/A
6:35 pm 18:35 Cloudy 31 -0.7 26 -3.5 82 82 N 23 37 30.30 1026 10 16 N/A
6:55 pm 18:55 Cloudy 31 -0.7 26 -3.5 82 82 N 22 35 30.30 1026 10 16 N/A
7:15 pm 19:15 Cloudy 31 -0.8 25 -3.7 81 81 NNE 20 31 30.30 1026 10 16 N/A
7:35 pm 19:35 Cloudy 30 -1 26 -3.6 83 83 NNE 23 37 30.33 1027 10 16 N/A
7:55 pm 19:55 Cloudy 30 -1 26 -3.6 83 83 N 17 28 30.33 1027 10 16 N/A
8:15 pm 20:15 Cloudy 30 -1 26 -3.5 83 83 NNE 18 30 30.36 1028 10 16 N/A
8:35 pm 20:35 Cloudy 30 -1 26 -3.5 83 83 N 17 28 30.36 1028 10 16 N/A
8:55 pm 20:55 Cloudy 30 -1 26 -3.6 83 83 NNE 18 30 30.39 1029 10 16 N/A
9:15 pm 21:15 Cloudy 31 -0.8 25 -3.9 80 80 N 21 33 30.39 1029 10 16 N/A
9:35 pm 21:35 Cloudy 30 -0.9 25 -4.1 79 79 NNE 18 30 30.42 1030 10 16 N/A
9:55 pm 21:55 Cloudy 30 -1 24 -4.3 79 79 N 13 20 30.45 1031 10 16 N/A
10:15 pm 22:15 Cloudy 30 -1 24 -4.3 79 79 N 17 28 30.45 1031 10 16 N/A
10:35 pm 22:35 Cloudy 30 -1.2 24 -4.7 77 77 NNE 15 24 30.45 1031 10 16 N/A
10:55 pm 22:55 Cloudy 30 -1.2 23 -4.9 76 76 N 17 28 30.45 1031 10 16 N/A
11:15 pm 23:15 Cloudy 29 -1.5 23 -5 77 77 NNE 15 24 30.45 1031 10 16 N/A
11:35 pm 23:35 Cloudy 29 -1.7 23 -5 78 78 N 15 24 30.45 1031 10 16 N/A
11:55 pm 23:55 Cloudy 29 -1.7 22 -5.4 76 76 N 17 28 30.48 1032 10 16 N/A

Powered by AerisWeather